Preview of NWS' New Version of Forecast
This preview is not operational and should not be used for support decisions.

Regional Weather Roundup (RWR)

Issued by National Weather Service (NWS)

                            
000
ASUS46 KPQR 222310
RWROR 

OREGON REGIONAL WEATHER ROUNDUP
NATIONAL WEATHER SERVICE PORTLAND OR
400 PM PDT MON APR 22 2019

NOTE: "FAIR" INDICATES FEW OR NO CLOUDS BELOW 12,000 FEET WITH
NO SIGNIFICANT WEATHER AND/OR OBSTRUCTIONS TO VISIBILITY.

ORZ001>013-230000-
NORTHWEST OREGON

  
CITY           SKY/WX    TMP DP  RH WIND       PRES   REMARKS
ASTORIA        CLOUDY    53  43  68 SW10      30.28F                  
TILLAMOOK      CLOUDY    57  48  72 CALM      30.30F                  
NEWPORT        CLOUDY    54  46  76 CALM      30.33F                  
PORTLAND       LGT RAIN  65  45  48 CALM      30.26F                  
VANCOUVER WA   CLOUDY    65  42  43 VRB5      30.25F                  
SCAPPOOSE      CLOUDY    66  47  50 E3        30.25F                  
HILLSBORO      PTSUNNY   63  49  60 N5        30.26F                  
AURORA         CLOUDY    65  46  50 SW3       30.27F                  
MCMINNVILLE    CLOUDY    64  52  64 SW6       30.26F                  
SALEM          CLOUDY    66  43  43 CALM      30.25F                  
CORVALLIS      PTSUNNY   68  50  52 CALM      30.27F                  
EUGENE         PTSUNNY   72  50  45 CALM      30.25F                  
$$

ORZ021-028-230000-
SOUTHWEST OREGON

  
CITY           SKY/WX    TMP DP  RH WIND       PRES   REMARKS
NORTH BEND     PTSUNNY   59  49  69 NW9       30.32F                  
BROOKINGS      SUNNY     68  48  48 W7        30.24F                  
ROSEBURG       PTSUNNY   76  37  24 N5        30.24F                  
SEXTON SUMMIT  SUNNY     65  39  38 CALM      30.31F                  
GRANTS PASS    FAIR      77  36  22 CALM      30.24F                  
MEDFORD        SUNNY     75  23  14 VRB3      30.22F                  
$$

ORZ014>016-041-230000-
COLUMBIA GORGE

  
CITY           SKY/WX    TMP DP  RH WIND       PRES   REMARKS
TROUTDALE      CLOUDY    67  39  35 CALM      30.25F                  
HOOD RIVER     CLOUDY    68  30  24 MISG      30.20F                  
THE DALLES     PTSUNNY   73  39  29 NW15      30.15F                  
$$

ORZ029>031-041-044-049-050-061>064-502-503-505>511-230000-
EASTERN OREGON

  
CITY           SKY/WX    TMP DP  RH WIND       PRES   REMARKS
MADRAS         PTSUNNY   70  36  28 CALM      30.22F                  
REDMOND        PTSUNNY   72  37  28 NW14G22   30.22F                  
BEND           MOSUNNY   73  36  25 NW15G23   30.23F                  
PRINEVILLE     PTSUNNY   70  36  28 NW9       30.24S                  
KLAMATH FALLS  MOSUNNY   69  35  28 NW18      30.25F                  
LAKEVIEW       MOSUNNY   67  26  21 CALM      30.26F                  
HERMISTON      SUNNY     77  39  25 W14G22    30.13F                  
PENDLETON      PTSUNNY   69  37  30 VRB3      30.16F                  
JOHN DAY       CLOUDY    67  35  30 W12G17    30.23F                  
MEACHAM        CLOUDY    62  32  32 CALM      30.23F                  
LA GRANDE      MOSUNNY   67  35  30 E5        30.19F                  
BAKER CITY     SUNNY     70  29  21 VRB7      30.19F                  
BURNS          SUNNY     69  31  24 S9        30.22F                  
ROME             N/A     69  21  16 N12       30.20F                  
ONTARIO        PTSUNNY   74  37  26 VRB6      30.18F                  
$$